Time,TemperatureF,DewpointF,PressureIn,WindDirection,WindDirectionDegrees,WindSpeedMPH,WindSpeedGustMPH,Humidity,HourlyPrecipIn,Conditions,Clouds,dailyrainin,SoftwareType,DateUTC
2013-10-12 00:06:00,55.4,54.0,29.99,NE,45,0.0,0.0,93,0.00,,,0.00,weatherlink.com 1.10,2013-10-12 05:06:00,
2013-10-12 00:21:00,55.3,53.0,29.99,NE,45,0.0,0.0,93,0.00,,,0.00,weatherlink.com 1.10,2013-10-12 05:21:00,
2013-10-12 00:36:00,55.0,53.0,30.00,NE,45,0.0,0.0,93,0.00,,,0.00,weatherlink.com 1.10,2013-10-12 05:36:00,
2013-10-12 00:51:00,54.8,53.0,30.00,NE,45,0.0,0.0,93,0.00,,,0.00,weatherlink.com 1.10,2013-10-12 05:51:00,
2013-10-12 01:07:00,54.6,53.0,30.00,NE,45,0.0,0.0,93,0.00,,,0.00,weatherlink.com 1.10,2013-10-12 06:07:00,
2013-10-12 01:22:00,54.4,53.0,30.01,NE,45,0.0,0.0,93,0.00,,,0.00,weatherlink.com 1.10,2013-10-12 06:22:00,
2013-10-12 01:37:00,54.2,52.0,30.00,NE,45,0.0,0.0,93,0.00,,,0.00,weatherlink.com 1.10,2013-10-12 06:37:00,
2013-10-12 01:52:00,54.1,52.0,30.01,NE,45,0.0,0.0,93,0.00,,,0.00,weatherlink.com 1.10,2013-10-12 06:52:00,
2013-10-12 02:07:00,54.0,52.0,30.01,NE,45,0.0,0.0,93,0.00,,,0.00,weatherlink.com 1.10,2013-10-12 07:07:00,
2013-10-12 02:22:00,53.9,52.0,30.00,NE,45,0.0,0.0,94,0.00,,,0.00,weatherlink.com 1.10,2013-10-12 07:22:00,
2013-10-12 02:37:00,53.7,52.0,30.00,NE,45,0.0,0.0,94,0.00,,,0.00,weatherlink.com 1.10,2013-10-12 07:37:00,
2013-10-12 02:52:00,53.6,52.0,30.00,NE,45,0.0,0.0,94,0.00,,,0.00,weatherlink.com 1.10,2013-10-12 07:52:00,
2013-10-12 03:07:00,53.5,52.0,30.00,NE,45,0.0,0.0,94,0.00,,,0.00,weatherlink.com 1.10,2013-10-12 08:07:00,
2013-10-12 03:22:00,53.3,52.0,30.00,NE,45,0.0,0.0,94,0.00,,,0.00,weatherlink.com 1.10,2013-10-12 08:22:00,
2013-10-12 03:37:00,53.2,52.0,30.00,NE,45,0.0,0.0,94,0.00,,,0.00,weatherlink.com 1.10,2013-10-12 08:37:00,
2013-10-12 03:52:00,53.2,52.0,30.00,NE,45,0.0,0.0,94,0.00,,,0.00,weatherlink.com 1.10,2013-10-12 08:52:00,
2013-10-12 04:07:00,53.1,52.0,30.00,NE,45,0.0,0.0,94,0.00,,,0.00,weatherlink.com 1.10,2013-10-12 09:07:00,
2013-10-12 04:22:00,53.1,52.0,29.99,NE,45,0.0,0.0,94,0.00,,,0.00,weatherlink.com 1.10,2013-10-12 09:22:00,
2013-10-12 04:37:00,53.0,51.0,29.99,NE,45,0.0,0.0,94,0.00,,,0.00,weatherlink.com 1.10,2013-10-12 09:37:00,
2013-10-12 04:52:00,53.0,51.0,30.00,NE,45,0.0,0.0,94,0.00,,,0.00,weatherlink.com 1.10,2013-10-12 09:52:00,
2013-10-12 05:07:00,53.0,51.0,30.00,NE,45,0.0,0.0,94,0.00,,,0.00,weatherlink.com 1.10,2013-10-12 10:07:00,
2013-10-12 05:22:00,52.9,51.0,30.00,NE,45,0.0,0.0,94,0.00,,,0.00,weatherlink.com 1.10,2013-10-12 10:22:00,
2013-10-12 05:37:00,52.9,51.0,30.01,NE,45,0.0,0.0,94,0.00,,,0.00,weatherlink.com 1.10,2013-10-12 10:37:00,
2013-10-12 05:52:00,52.8,51.0,30.01,NE,45,0.0,0.0,94,0.00,,,0.00,weatherlink.com 1.10,2013-10-12 10:52:00,
2013-10-12 06:07:00,52.8,51.0,30.01,NE,45,0.0,0.0,94,0.00,,,0.00,weatherlink.com 1.10,2013-10-12 11:07:00,
2013-10-12 06:22:00,52.6,51.0,30.01,NE,45,0.0,0.0,94,0.00,,,0.00,weatherlink.com 1.10,2013-10-12 11:22:00,
2013-10-12 06:37:00,52.5,51.0,30.01,NE,45,0.0,0.0,94,0.00,,,0.00,weatherlink.com 1.10,2013-10-12 11:37:00,
2013-10-12 06:52:00,52.4,51.0,30.02,NE,45,0.0,0.0,94,0.00,,,0.00,weatherlink.com 1.10,2013-10-12 11:52:00,
2013-10-12 07:07:00,52.5,51.0,30.02,NE,45,0.0,0.0,94,0.00,,,0.00,weatherlink.com 1.10,2013-10-12 12:07:00,
2013-10-12 07:22:00,52.5,51.0,30.02,NE,45,0.0,0.0,94,0.00,,,0.00,weatherlink.com 1.10,2013-10-12 12:22:00,
2013-10-12 07:37:00,52.8,52.0,30.02,NE,45,0.0,0.0,95,0.00,,,0.00,weatherlink.com 1.10,2013-10-12 12:37:00,
2013-10-12 07:52:00,53.7,52.0,30.02,NE,45,0.0,0.0,95,0.00,,,0.00,weatherlink.com 1.10,2013-10-12 12:52:00,
2013-10-12 08:07:00,54.9,54.0,30.02,NE,45,0.0,0.0,95,0.00,,,0.00,weatherlink.com 1.10,2013-10-12 13:07:00,
2013-10-12 08:22:00,56.1,55.0,30.03,NE,45,0.0,0.0,95,0.00,,,0.00,weatherlink.com 1.10,2013-10-12 13:22:00,
2013-10-12 08:37:00,57.9,57.0,30.03,NE,45,0.0,1.0,95,0.00,,,0.00,weatherlink.com 1.10,2013-10-12 13:37:00,
2013-10-12 08:52:00,59.8,58.0,30.04,NE,45,0.0,0.0,95,0.00,,,0.00,weatherlink.com 1.10,2013-10-12 13:52:00,
2013-10-12 09:07:00,62.0,61.0,30.05,NE,45,0.0,2.0,96,0.00,,,0.00,weatherlink.com 1.10,2013-10-12 14:07:00,
2013-10-12 09:22:00,63.3,62.0,30.05,South,181,0.0,2.0,95,0.00,,,0.00,weatherlink.com 1.10,2013-10-12 14:22:00,
2013-10-12 09:37:00,63.8,62.0,30.05,SSE,166,0.0,3.0,95,0.00,,,0.00,weatherlink.com 1.10,2013-10-12 14:37:00,
2013-10-12 09:52:00,65.0,64.0,30.05,South,171,0.0,3.0,95,0.00,,,0.00,weatherlink.com 1.10,2013-10-12 14:52:00,
2013-10-12 10:08:00,66.8,64.0,30.05,South,171,0.0,2.0,89,0.00,,,0.00,weatherlink.com 1.10,2013-10-12 15:08:00,
2013-10-12 10:23:00,68.4,64.0,30.05,SSE,161,0.0,3.0,85,0.00,,,0.00,weatherlink.com 1.10,2013-10-12 15:23:00,
2013-10-12 10:38:00,69.6,65.0,30.06,ESE,110,0.0,1.0,84,0.00,,,0.00,weatherlink.com 1.10,2013-10-12 15:38:00,
2013-10-12 10:53:00,70.1,64.0,30.06,SSE,149,0.0,2.0,82,0.00,,,0.00,weatherlink.com 1.10,2013-10-12 15:53:00,
2013-10-12 11:08:00,70.7,64.0,30.07,SSE,149,0.0,5.0,80,0.00,,,0.00,weatherlink.com 1.10,2013-10-12 16:08:00,
2013-10-12 11:23:00,71.2,64.0,30.08,South,180,0.0,3.0,79,0.00,,,0.00,weatherlink.com 1.10,2013-10-12 16:23:00,
2013-10-12 11:38:00,71.6,65.0,30.08,South,171,2.0,3.0,79,0.00,,,0.00,weatherlink.com 1.10,2013-10-12 16:38:00,
2013-10-12 11:53:00,72.0,65.0,30.08,SSE,159,0.0,4.0,78,0.00,,,0.00,weatherlink.com 1.10,2013-10-12 16:53:00,
2013-10-12 12:08:00,71.9,64.0,30.08,SSW,213,0.0,2.0,77,0.00,,,0.00,weatherlink.com 1.10,2013-10-12 17:08:00,
2013-10-12 12:23:00,71.5,65.0,30.08,South,176,0.0,0.0,80,0.00,,,0.00,weatherlink.com 1.10,2013-10-12 17:23:00,
2013-10-12 12:38:00,71.1,65.0,30.09,SW,218,1.0,3.0,80,0.00,,,0.00,weatherlink.com 1.10,2013-10-12 17:38:00,
2013-10-12 12:53:00,70.8,64.0,30.08,SW,236,4.0,4.0,80,0.00,,,0.00,weatherlink.com 1.10,2013-10-12 17:53:00,
2013-10-12 13:08:00,70.6,65.0,30.06,SSE,155,1.0,4.0,81,0.00,,,0.00,weatherlink.com 1.10,2013-10-12 18:08:00,
2013-10-12 13:23:00,71.0,65.0,30.05,SSW,192,1.0,2.0,80,0.00,,,0.00,weatherlink.com 1.10,2013-10-12 18:23:00,
2013-10-12 13:38:00,71.2,64.0,30.05,SSE,155,2.0,5.0,79,0.00,,,0.00,weatherlink.com 1.10,2013-10-12 18:38:00,
2013-10-12 13:53:00,71.1,65.0,30.04,NNE,30,0.0,3.0,81,0.00,,,0.00,weatherlink.com 1.10,2013-10-12 18:53:00,
2013-10-12 14:08:00,71.2,65.0,30.05,WSW,255,0.0,2.0,80,0.00,,,0.00,weatherlink.com 1.10,2013-10-12 19:08:00,
2013-10-12 14:23:00,70.9,66.0,30.04,WSW,255,0.0,0.0,84,0.00,,,0.00,weatherlink.com 1.10,2013-10-12 19:23:00,
2013-10-12 14:38:00,70.3,66.0,30.02,WSW,238,2.0,3.0,86,0.00,,,0.00,weatherlink.com 1.10,2013-10-12 19:38:00,
2013-10-12 14:53:00,70.1,65.0,30.02,South,183,0.0,2.0,85,0.00,,,0.00,weatherlink.com 1.10,2013-10-12 19:53:00,
2013-10-12 15:09:00,70.4,66.0,30.03,SSW,206,0.0,1.0,85,0.00,,,0.00,weatherlink.com 1.10,2013-10-12 20:09:00,
2013-10-12 15:24:00,70.5,66.0,30.02,SSE,157,0.0,2.0,85,0.00,,,0.00,weatherlink.com 1.10,2013-10-12 20:24:00,
2013-10-12 15:38:00,71.1,66.0,30.02,SSE,166,2.0,4.0,83,0.00,,,0.00,weatherlink.com 1.10,2013-10-12 20:38:00,
2013-10-12 15:53:00,72.1,67.0,30.02,South,184,0.0,6.0,83,0.00,,,0.00,weatherlink.com 1.10,2013-10-12 20:53:00,
2013-10-12 16:08:00,73.0,65.0,30.01,South,176,0.0,3.0,77,0.00,,,0.00,weatherlink.com 1.10,2013-10-12 21:08:00,
2013-10-12 16:23:00,73.5,65.0,30.01,SSE,155,2.0,2.0,74,0.00,,,0.00,weatherlink.com 1.10,2013-10-12 21:23:00,
2013-10-12 16:38:00,73.3,64.0,30.02,SSE,152,0.0,4.0,73,0.00,,,0.00,weatherlink.com 1.10,2013-10-12 21:38:00,
2013-10-12 16:53:00,73.2,64.0,30.02,South,176,0.0,4.0,74,0.00,,,0.00,weatherlink.com 1.10,2013-10-12 21:53:00,
2013-10-12 17:08:00,73.2,64.0,30.02,SSW,213,0.0,5.0,73,0.00,,,0.00,weatherlink.com 1.10,2013-10-12 22:08:00,
2013-10-12 17:23:00,72.9,64.0,30.03,SW,226,2.0,3.0,74,0.00,,,0.00,weatherlink.com 1.10,2013-10-12 22:23:00,
2013-10-12 17:38:00,72.4,65.0,30.03,SW,229,1.0,3.0,78,0.00,,,0.00,weatherlink.com 1.10,2013-10-12 22:38:00,
2013-10-12 17:53:00,71.7,65.0,30.04,SW,229,0.0,2.0,79,0.00,,,0.00,weatherlink.com 1.10,2013-10-12 22:53:00,
2013-10-12 18:08:00,70.4,64.0,30.04,WSW,255,0.0,0.0,81,0.00,,,0.00,weatherlink.com 1.10,2013-10-12 23:08:00,
2013-10-12 18:23:00,69.5,64.0,30.04,WSW,255,0.0,0.0,83,0.00,,,0.00,weatherlink.com 1.10,2013-10-12 23:23:00,
2013-10-12 18:38:00,68.5,64.0,30.04,WSW,255,0.0,0.0,84,0.00,,,0.00,weatherlink.com 1.10,2013-10-12 23:38:00,
2013-10-12 18:53:00,67.4,63.0,30.05,WSW,255,0.0,0.0,85,0.00,,,0.00,weatherlink.com 1.10,2013-10-12 23:53:00,
2013-10-12 19:08:00,66.1,62.0,30.06,WSW,255,0.0,0.0,86,0.00,,,0.00,weatherlink.com 1.10,2013-10-13 00:08:00,
2013-10-12 19:23:00,65.2,61.0,30.06,WSW,255,0.0,0.0,87,0.00,,,0.00,weatherlink.com 1.10,2013-10-13 00:23:00,
2013-10-12 19:38:00,64.4,61.0,30.07,WSW,255,0.0,0.0,89,0.00,,,0.00,weatherlink.com 1.10,2013-10-13 00:38:00,
2013-10-12 19:53:00,64.0,61.0,30.07,WSW,255,0.0,0.0,90,0.00,,,0.00,weatherlink.com 1.10,2013-10-13 00:53:00,
2013-10-12 20:08:00,64.0,61.0,30.07,WSW,255,0.0,0.0,91,0.00,,,0.00,weatherlink.com 1.10,2013-10-13 01:08:00,
2013-10-12 20:23:00,64.0,62.0,30.08,WSW,255,0.0,0.0,92,0.00,,,0.00,weatherlink.com 1.10,2013-10-13 01:23:00,
2013-10-12 20:38:00,64.2,62.0,30.09,WSW,255,0.0,0.0,92,0.00,,,0.00,weatherlink.com 1.10,2013-10-13 01:38:00,
2013-10-12 20:53:00,65.1,63.0,30.10,WSW,248,0.0,1.0,94,0.00,,,0.00,weatherlink.com 1.10,2013-10-13 01:53:00,
2013-10-12 21:08:00,65.6,64.0,30.10,WSW,248,0.0,0.0,93,0.00,,,0.00,weatherlink.com 1.10,2013-10-13 02:08:00,
2013-10-12 21:23:00,65.7,64.0,30.11,WSW,248,0.0,0.0,93,0.00,,,0.00,weatherlink.com 1.10,2013-10-13 02:23:00,
2013-10-12 21:38:00,65.6,63.0,30.11,WSW,248,0.0,0.0,92,0.00,,,0.00,weatherlink.com 1.10,2013-10-13 02:38:00,
2013-10-12 21:53:00,65.2,63.0,30.11,WSW,248,0.0,0.0,92,0.00,,,0.00,weatherlink.com 1.10,2013-10-13 02:53:00,
2013-10-12 22:08:00,64.6,62.0,30.11,WSW,248,0.0,0.0,91,0.00,,,0.00,weatherlink.com 1.10,2013-10-13 03:08:00,
2013-10-12 22:23:00,64.0,61.0,30.11,WSW,248,0.0,0.0,91,0.00,,,0.00,weatherlink.com 1.10,2013-10-13 03:23:00,
2013-10-12 22:38:00,63.0,60.0,30.11,WSW,248,0.0,0.0,90,0.00,,,0.00,weatherlink.com 1.10,2013-10-13 03:38:00,
2013-10-12 22:53:00,62.3,60.0,30.11,WSW,248,0.0,0.0,91,0.00,,,0.00,weatherlink.com 1.10,2013-10-13 03:53:00,
2013-10-12 23:08:00,61.7,59.0,30.12,WSW,248,0.0,0.0,91,0.00,,,0.00,weatherlink.com 1.10,2013-10-13 04:08:00,
2013-10-12 23:23:00,61.1,59.0,30.12,WSW,248,0.0,0.0,91,0.00,,,0.00,weatherlink.com 1.10,2013-10-13 04:23:00,
2013-10-12 23:38:00,60.6,58.0,30.13,WSW,248,0.0,0.0,91,0.00,,,0.00,weatherlink.com 1.10,2013-10-13 04:38:00,
2013-10-12 23:53:00,60.0,57.0,30.13,WSW,248,0.0,0.0,91,0.00,,,0.00,weatherlink.com 1.10,2013-10-13 04:53:00,